Location: Chillicothe
(39.7950°N, 93.5520°W)
Time: 10:01:28
(UTC-05:00)

Vanguard 1 Rocket - Visible Passes

Search period start: 17 October 2019 00:00
Search period end: 27 October 2019 00:00
Orbit: 650 x 4226 km, 34.3° (Epoch: 13 October)

Date Brightness Start Highest point End Pass type
(mag) Time Alt. Az. Time Alt. Az. Time Alt. Az.
17 Oct 11.3 18:43:38 10° W 19:06:30 42° SW 19:24:32 10° SSE visible
17 Oct 11.6 21:28:24 10° WSW 21:32:43 11° WSW 21:36:44 10° SW visible
18 Oct 11.5 20:04:06 10° W 20:20:49 23° SW 20:34:22 10° S visible
19 Oct 11.5 18:46:35 10° W 19:08:04 35° SW 19:25:51 10° SSE visible
20 Oct 11.8 20:08:48 10° W 20:22:14 17° SW 20:33:51 10° SSW visible
21 Oct 11.7 18:49:53 10° W 19:09:34 29° SW 19:26:43 10° S visible
22 Oct 12.0 20:15:53 10° WSW 20:23:41 12° WSW 20:30:56 10° SW visible
23 Oct 11.9 18:53:45 10° W 19:11:04 24° SW 19:26:53 10° S visible
25 Oct 12.1 18:58:36 10° W 19:12:37 18° SW 19:25:58 10° SSW visible
